Theta_e
304 299 296 299 302 301 299 298 297 300 303 299 300 301 303 306 307 306 307 308 309 310 313 315 316 317 320 326 328 331 332 343 348 349 345 345 344 346 346 346 346 350 350 348
300 296 300 302 300 299 298 296 296 299 301 300 299 299 303 305 305 307 307 308 308 309 311 312 314 317 318 320 331 330 329 334 339 349 345 345 343 344 345 347 348 348 348 351
296 299 301 298 297 296 296 295 296 296 299 300 298 296 299 303 305 306 307 309 309 310 310 311 312 316 318 320 320 323 328 330 336 343 347 351 350 350 345 342 341 346 347 350
299 301 297 297 296 298 294 300 298 296 294 290 298 289 298 301 301 303 305 307 308 309 310 311 313 315 317 317 319 321 326 329 332 335 339 346 349 348 348 347 347 348 346 349
297 298 296 295 297 299 295 298 297 296 294 294 294 292 296 301 299 301 304 306 308 310 310 311 312 314 315 316 320 322 325 328 330 332 341 334 338 339 348 352 358 359 353 350
300 303 300 298 299 300 300 297 297 297 295 288 293 293 294 297 299 301 303 305 306 309 311 311 312 313 315 317 317 320 323 325 328 329 331 336 337 339 336 340 346 352 349 352
298 298 301 301 296 298 298 295 288 287 288 287 295 293 295 300 301 302 302 304 306 310 311 311 311 312 314 315 316 318 320 324 325 326 328 331 337 337 342 342 336 344 348 352
292 290 298 302 298 295 295 294 288 282 284 286 295 289 295 302 304 303 304 305 307 309 310 311 312 312 313 314 316 317 319 321 324 326 327 329 334 328 330 336 336 334 336 344
292 292 299 301 301 299 294 291 297 290 292 288 292 295 300 302 301 303 303 304 305 308 310 310 312 313 313 315 316 318 319 321 323 325 328 330 330 334 333 341 344 338 346 341
296 290 298 299 300 300 297 299 290 291 282 281 288 290 290 298 300 302 302 303 305 308 309 310 311 312 314 316 316 318 321 321 323 324 325 326 329 329 333 338 340 342 346 352
298 294 294 297 295 294 294 293 293 294 291 284 283 288 299 299 301 301 302 304 306 307 308 310 310 312 314 315 315 317 317 319 320 321 323 327 328 329 331 334 336 340 345 348
298 295 289 291 298 301 298 295 295 288 287 290 288 288 301 302 303 303 303 306 307 308 309 310 311 312 313 313 314 315 316 316 318 320 321 322 327 330 333 333 334 339 342 347
298 292 286 289 294 297 293 294 295 294 294 289 286 289 302 302 303 304 304 306 307 308 309 309 310 311 311 312 312 314 315 315 317 319 319 323 326 330 336 336 337 339 339 343
299 293 289 285 287 291 290 292 295 294 289 289 290 292 297 300 301 303 305 307 307 308 309 310 310 310 311 311 311 312 314 316 317 318 318 321 326 330 332 337 338 336 335 339
297 290 292 293 294 293 292 292 293 292 293 288 292 293 296 299 301 303 306 307 306 306 307 308 309 309 310 310 311 311 312 314 317 316 317 321 325 327 328 331 336 336 338 339
298 291 292 290 293 292 290 292 293 293 294 294 295 294 301 303 304 304 303 306 305 305 307 308 308 308 308 309 309 311 314 313 316 315 315 319 320 322 327 331 336 339 337 341
294 293 289 286 291 291 287 292 294 295 295 294 292 298 301 300 302 303 304 304 304 305 305 306 307 307 306 308 310 307 309 314 314 314 315 317 319 320 324 327 331 334 341 346
294 291 291 287 289 281 292 298 298 296 297 298 298 299 301 302 304 305 304 303 304 305 304 305 306 307 309 309 310 311 311 310 312 313 314 316 317 319 323 325 332 336 342 346
296 291 288 285 286 290 293 297 297 295 294 299 299 301 302 301 302 302 304 306 305 306 306 305 307 309 309 308 307 309 309 309 309 312 314 315 317 319 322 324 333 338 341 344
296 294 289 289 283 281 292 298 301 300 290 302 301 299 298 298 292 298 303 305 305 305 306 304 306 307 309 308 310 308 308 309 309 311 314 316 316 318 322 328 333 339 342 344
290 289 286 287 285 290 298 300 301 287 291 301 301 300 299 297 300 303 304 304 305 305 306 306 306 305 306 307 306 308 310 309 312 313 316 316 319 321 326 330 336 340 342 341
290 288 287 289 286 283 301 299 291 299 302 301 300 301 300 300 301 301 302 303 304 304 303 304 303 303 305 306 307 305 306 311 313 314 315 316 321 322 327 330 336 339 340 337
290 294 290 292 293 301 302 301 304 304 301 301 300 299 299 300 300 301 301 302 301 301 301 302 302 304 306 307 308 306 309 313 314 314 315 317 318 322 329 329 332 337 333 331
295 300 293 293 297 297 300 303 303 304 301 300 300 301 299 297 298 297 297 298 298 299 299 301 300 301 302 306 307 308 310 312 313 313 314 315 317 325 330 331 335 330 331 335
293 296 292 292 296 295 298 300 303 301 301 300 300 297 296 296 295 295 295 296 297 297 299 300 300 300 302 305 307 309 312 314 312 314 315 318 321 323 328 328 329 337 340 334
293 290 286 286 292 292 293 300 302 299 299 300 295 296 297 296 295 295 295 296 297 297 298 299 300 301 302 304 307 310 315 315 316 319 321 320 324 324 319 324 313 300 301 303
Wind_Speed
16 12 14 16 16 15 13 16 14 6 10 5 14 17 18 17 17 16 16 16 15 15 13 11 6 2 3 5 4 7 4 4 4 4 7 10 9 6 8 10 10 13 14 15
10 15 16 18 7 10 14 16 16 15 9 9 16 19 19 18 17 17 17 18 17 14 11 10 10 6 1 2 5 4 2 3 3 9 6 4 7 7 9 8 9 12 13 11
14 17 10 3 11 14 16 16 15 14 8 10 18 23 25 26 25 17 15 15 12 13 8 8 9 7 5 4 2 1 1 1 5 5 3 7 5 2 4 8 10 11 11 11
10 11 3 10 14 12 15 11 12 9 11 13 2 12 9 7 9 10 9 7 10 10 12 9 10 10 6 4 2 2 2 3 6 2 7 6 9 8 10 13 11 11 15 16
14 11 10 14 13 7 12 3 9 13 14 16 19 14 14 18 16 12 9 9 8 7 6 5 5 3 3 3 1 2 3 4 3 4 5 6 10 10 11 11 11 10 11 17
17 12 11 12 14 13 10 9 15 17 16 17 20 18 14 13 15 16 9 8 5 6 6 4 1 3 4 3 4 2 3 4 5 5 6 8 10 9 10 10 8 11 11 10
21 21 21 17 15 15 13 13 13 16 15 15 5 6 12 8 6 5 2 4 5 8 8 7 5 5 5 6 7 5 6 5 5 7 8 8 10 9 11 12 10 12 9 11
17 18 18 18 17 15 12 14 12 8 11 5 11 8 12 8 10 2 5 6 6 8 6 5 6 6 8 8 9 8 9 9 9 8 9 9 10 9 10 11 10 10 11 11
12 12 8 12 13 15 11 11 10 13 20 15 15 16 13 11 8 7 8 6 5 8 7 7 9 8 8 8 8 11 11 10 11 11 8 9 10 11 11 12 11 10 10 11
15 12 9 6 10 13 12 9 6 8 13 18 16 17 13 21 17 10 5 5 3 5 8 11 13 13 11 10 11 11 11 13 13 12 12 11 11 11 11 11 12 12 12 11
13 12 14 9 11 18 11 17 17 17 10 7 12 6 12 1 6 2 4 4 7 11 12 14 14 11 12 13 13 13 14 14 13 13 12 12 12 12 12 11 12 12 13 14
9 8 12 19 14 16 15 16 15 7 14 12 15 18 12 9 5 4 7 14 12 9 11 14 13 13 14 14 16 16 15 16 14 14 15 13 12 13 12 12 12 13 14 13
5 5 7 12 13 13 13 16 16 16 15 20 15 13 2 9 9 11 14 13 12 13 12 10 14 15 14 15 16 17 17 18 17 14 16 13 13 13 13 14 14 14 14 14
7 11 16 15 14 4 7 11 12 11 11 16 20 23 20 16 15 16 17 16 17 16 14 14 15 15 16 17 18 18 19 18 17 17 17 15 13 13 14 15 14 15 16 16
10 17 18 21 21 18 18 19 20 20 19 20 21 24 22 21 19 19 15 16 17 15 20 21 18 19 21 21 19 22 23 21 18 17 18 16 15 15 16 16 16 15 15 16
5 10 14 17 17 17 18 18 19 21 23 25 25 27 25 28 17 16 16 17 15 19 21 21 23 23 21 22 20 21 23 20 18 16 19 18 18 17 16 16 16 15 16 16
6 6 6 14 10 12 13 19 13 22 17 16 22 21 17 19 18 17 18 18 20 23 27 25 24 19 15 19 18 16 19 19 16 18 20 19 19 18 19 18 18 17 15 14
13 12 7 10 13 14 3 15 20 11 13 16 19 19 20 20 20 21 22 22 26 26 21 20 21 19 18 15 21 20 20 17 22 20 20 20 20 19 20 17 18 14 14 14
10 9 6 5 8 16 15 9 11 14 18 20 22 16 19 21 25 25 20 21 22 25 23 19 19 20 21 19 19 21 22 19 18 23 21 19 17 18 20 18 18 13 14 13
7 9 7 8 5 6 10 7 9 13 18 14 18 20 24 23 18 19 19 25 27 27 21 19 22 23 21 19 19 18 20 20 18 21 23 19 15 16 18 18 18 13 14 13
4 4 12 11 8 11 8 11 16 13 13 24 23 23 25 24 21 31 28 28 26 26 25 23 22 19 18 17 16 19 20 20 20 18 19 15 13 16 18 18 14 15 14 11
5 4 5 7 6 7 12 18 11 16 21 22 25 25 29 28 29 28 30 30 26 28 25 25 21 19 18 17 16 17 19 19 18 20 17 17 16 13 14 17 15 16 13 14
2 2 3 5 5 17 15 17 19 19 21 24 26 24 26 31 31 29 27 30 25 23 20 20 20 21 18 17 17 17 18 17 20 18 15 16 16 16 17 14 15 12 13 12
7 9 3 10 6 20 19 19 17 21 24 24 24 28 31 28 28 27 23 21 20 19 19 19 20 21 20 19 17 19 17 17 19 16 15 14 15 17 15 13 12 13 13 13
4 9 8 14 15 17 12 18 22 22 24 27 28 27 23 22 23 23 22 22 21 21 20 19 20 20 21 21 19 18 17 17 18 16 17 15 12 15 13 10 10 14 15 13
2 3 3 6 17 16 19 24 29 23 26 24 25 26 23 22 22 23 20 21 21 22 22 20 20 21 21 19 21 19 19 16 17 16 12 10 10 11 10 11 10 22 12 15
Wind_Direction
213 243 239 248 240 255 307 288 297 256 223 214 266 266 258 246 226 236 241 235 237 223 229 235 274 253 137 82 31 65 26 4 175 156 207 209 223 229 237 239 223 208 209 208
243 244 251 271 299 277 261 261 257 262 261 265 273 272 270 261 257 256 247 239 235 225 205 231 226 231 252 319 71 71 48 337 269 201 205 210 202 204 231 238 248 220 230 211
254 288 356 293 245 243 250 260 264 272 291 295 269 262 257 243 241 246 251 243 242 238 216 230 232 208 228 213 190 159 200 187 243 294 239 200 236 276 239 246 239 219 215 208
253 271 246 229 240 259 264 272 235 285 268 265 353 286 308 173 211 210 198 195 206 216 215 212 205 209 207 209 187 290 305 286 248 147 276 257 261 224 229 235 222 206 206 212
267 243 213 256 256 275 283 19 274 264 268 275 262 248 262 242 181 176 187 171 184 189 200 213 180 148 196 215 283 227 263 264 256 236 240 268 248 244 244 238 229 208 199 202
252 248 256 276 303 304 271 277 256 249 248 248 249 247 245 189 195 173 180 201 190 205 161 174 255 285 257 260 260 219 259 265 295 279 261 244 257 270 277 277 274 207 204 212
248 245 231 216 243 259 253 249 256 242 218 239 186 203 244 82 130 110 241 269 254 183 196 197 249 283 310 281 277 283 281 287 264 278 284 274 262 253 261 255 263 272 256 206
281 267 226 242 216 250 233 283 280 275 284 300 150 223 232 209 149 272 262 251 268 261 229 225 267 276 300 308 314 293 285 292 308 298 277 281 273 269 262 253 248 264 257 274
288 291 31 235 246 226 231 253 307 294 283 273 275 285 151 174 183 197 234 240 281 261 240 268 280 285 288 293 294 291 283 288 284 288 286 271 272 267 274 291 294 267 244 263
293 284 236 217 278 258 242 242 277 245 256 256 262 255 247 176 188 165 238 231 274 293 282 266 266 268 282 288 284 267 270 281 281 283 285 284 281 265 256 256 263 271 277 270
288 272 263 234 220 249 210 234 230 252 237 266 281 260 45 80 93 126 235 253 279 294 294 296 287 281 268 274 274 273 270 257 265 273 275 281 285 277 265 257 256 257 254 255
290 286 272 268 237 251 246 236 264 240 237 236 260 274 281 239 90 81 259 248 279 299 289 306 300 300 298 292 284 279 278 277 264 265 269 271 278 280 268 258 253 255 254 242
341 287 293 278 267 216 251 250 239 211 258 257 257 252 17 167 214 231 258 289 281 259 255 277 294 291 297 301 296 289 279 280 273 269 272 266 266 269 268 255 253 253 258 253
295 285 272 280 308 214 252 292 284 271 270 273 263 268 258 254 295 290 293 295 288 292 289 284 272 273 279 290 294 287 283 275 275 274 267 267 268 267 267 270 254 250 249 251
245 269 279 285 272 262 247 250 244 253 262 256 268 271 285 292 289 279 306 303 311 297 294 293 298 295 291 286 286 284 275 267 261 263 264 261 264 264 261 263 262 251 247 247
268 268 274 284 269 264 264 266 266 256 251 262 265 267 264 263 337 295 275 283 295 293 294 298 291 291 312 302 297 293 281 258 254 270 270 263 262 266 260 259 255 254 243 245
290 264 295 279 306 309 268 258 266 296 307 290 285 282 293 293 295 329 336 326 308 298 301 297 298 297 295 291 284 282 291 298 263 259 263 261 261 261 256 251 251 249 236 237
256 279 287 285 297 266 313 3 309 328 322 313 309 313 318 323 325 319 321 304 300 295 294 289 290 296 290 274 279 285 275 279 288 261 260 258 259 262 252 251 259 248 240 227
232 264 275 263 284 288 300 21 11 346 314 299 288 332 332 318 307 292 304 300 289 290 290 294 294 294 283 280 271 271 268 258 264 274 263 255 264 265 267 254 255 241 241 222
189 212 254 296 297 285 315 33 354 320 295 10 342 323 318 313 290 293 311 299 296 300 309 310 303 296 284 270 260 261 260 251 242 250 253 251 247 258 255 260 261 245 230 214
178 214 230 246 263 273 30 354 331 283 321 330 320 317 306 304 296 301 299 302 304 296 301 300 288 284 281 280 277 270 265 264 259 253 256 256 250 256 257 254 249 237 211 203
217 226 215 249 238 269 347 336 324 320 315 317 309 304 300 304 305 302 298 298 298 305 299 291 283 276 272 267 254 250 256 260 257 251 248 252 247 255 255 240 232 203 191 187
353 357 288 297 285 311 327 317 321 321 314 302 307 332 314 303 301 302 302 305 301 288 282 276 275 278 273 266 257 253 256 259 255 248 248 244 253 250 247 228 202 189 176 156
356 11 320 330 322 329 326 319 312 316 304 329 317 322 320 307 304 298 293 289 285 281 277 278 275 271 272 269 260 254 254 247 249 247 243 240 241 245 228 202 180 163 155 151
6 309 344 296 299 334 288 318 307 322 324 327 335 312 299 297 296 295 291 289 285 280 274 268 265 263 261 263 261 255 245 233 236 237 241 234 236 219 181 156 170 162 155 154
350 357 291 281 312 295 281 292 299 326 336 331 322 312 305 301 297 297 293 291 289 288 285 275 264 255 252 243 249 244 236 231 232 232 227 214 193 139 124 127 96 49 79 81